This is the latest recevied weather packets stored in our database for station/object KP4FJC. If no packets are shown the sender has not sent any weather packets the latest 10 day(s).
| Time | Temp. | Humidity | Pressure | Rain* | Wind** | Luminosity | Snow |
|---|---|---|---|---|---|---|---|
| 1778151908 | 25.56° C | 84% | 1018.2 hPa | 0 mm | - | 92 W/m² | - |
| 1778151605 | 25.56° C | 85% | 1018.3 hPa | 0 mm | - | 77 W/m² | - |
| 1778151301 | 25° C | 87% | 1017.9 hPa | 0 mm | - | 64 W/m² | - |
| 1778150998 | 25° C | 88% | 1018.1 hPa | 0 mm | - | 60 W/m² | - |
| 1778150695 | 24.44° C | 89% | 1018 hPa | 0 mm | - | 55 W/m² | - |
| 1778150391 | 24.44° C | 90% | 1018.1 hPa | 0 mm | - | 50 W/m² | - |
| 1778150088 | 23.89° C | 90% | 1018.2 hPa | 0 mm | - | 42 W/m² | - |
| 1778149784 | 23.89° C | 91% | 1018.1 hPa | 0 mm | - | 34 W/m² | - |
| 1778149481 | 23.89° C | 92% | 1017.9 hPa | 0 mm | - | 27 W/m² | - |
| 1778149177 | 23.89° C | 92% | 1017.9 hPa | 0 mm | - | 22 W/m² | - |
| 1778148872 | 23.89° C | 92% | 1017.9 hPa | 0 mm | - | 18 W/m² | - |
| 1778148569 | 23.89° C | 92% | 1017.9 hPa | 0 mm | - | 14 W/m² | - |
| 1778148267 | 23.33° C | 92% | 1017.6 hPa | 0 mm | - | 9 W/m² | - |
| 1778147965 | 23.33° C | 92% | 1017.7 hPa | 0 mm | - | 6 W/m² | - |
| 1778147662 | 23.33° C | 93% | 1017.6 hPa | 0 mm | - | 4 W/m² | - |
| 1778147359 | 23.33° C | 93% | 1017.4 hPa | 0 mm | - | 2 W/m² | - |
| 1778147055 | 23.33° C | 93% | 1017.4 hPa | 0 mm | - | 0 W/m² | - |
| 1778146752 | 23.33° C | 93% | 1017.3 hPa | 0 mm | - | 0 W/m² | - |
| 1778146450 | 23.33° C | 93% | 1017.4 hPa | 0 mm | - | 0 W/m² | - |
| 1778146148 | 23.33° C | 93% | 1017.6 hPa | 0 mm | - | 0 W/m² | - |
| 1778145844 | 23.33° C | 93% | 1017.4 hPa | 0 mm | - | 0 W/m² | - |
| 1778145541 | 23.33° C | 93% | 1017.6 hPa | 0 mm | - | 0 W/m² | - |
| 1778145237 | 23.33° C | 93% | 1017.5 hPa | 0 mm | - | 0 W/m² | - |
| 1778144933 | 23.33° C | 93% | 1017.6 hPa | 0 mm | - | 0 W/m² | - |
| 1778144629 | 23.33° C | 93% | 1017.7 hPa | 0 mm | - | 0 W/m² | - |
* Rain latest hour (hover to see other rain measurements)
** Current wind speed in m/s (hover to see current wind gust speed)